TimeCDT,TemperatureF,Dew PointF,Humidity,Sea Level PressureIn,VisibilityMPH,Wind Direction,Wind SpeedMPH,Gust SpeedMPH,PrecipitationIn,Events,Conditions,WindDirDegrees,DateUTC
12:35 AM,69.8,68.0,94,29.95,10.0,Calm,Calm,-,N/A,,Overcast,0,2013-06-02 05:35:00
12:53 AM,69.1,68.0,96,29.95,10.0,Calm,Calm,-,N/A,,Overcast,0,2013-06-02 05:53:00
1:06 AM,69.8,68.0,94,29.96,10.0,Calm,Calm,-,N/A,,Overcast,0,2013-06-02 06:06:00
1:15 AM,69.8,68.0,94,29.95,10.0,Calm,Calm,-,N/A,,Overcast,0,2013-06-02 06:15:00
1:53 AM,69.1,68.0,96,29.93,10.0,Calm,Calm,-,N/A,,Overcast,0,2013-06-02 06:53:00
2:29 AM,69.8,68.0,94,29.95,10.0,Calm,Calm,-,N/A,,Overcast,0,2013-06-02 07:29:00
2:53 AM,70.0,68.0,93,29.94,10.0,Calm,Calm,-,N/A,,Overcast,0,2013-06-02 07:53:00
3:26 AM,69.8,68.0,94,29.96,10.0,North,3.5,-,N/A,,Overcast,360,2013-06-02 08:26:00
3:39 AM,69.8,68.0,94,29.96,10.0,North,3.5,-,N/A,,Overcast,350,2013-06-02 08:39:00
3:46 AM,69.8,66.2,88,29.95,10.0,North,5.8,-,N/A,,Overcast,350,2013-06-02 08:46:00
3:53 AM,69.1,66.9,93,29.95,10.0,North,4.6,-,N/A,,Overcast,350,2013-06-02 08:53:00
4:00 AM,69.8,68.0,94,29.95,10.0,North,3.5,-,N/A,,Overcast,350,2013-06-02 09:00:00
4:53 AM,68.0,66.9,96,29.94,10.0,North,3.5,-,N/A,,Overcast,360,2013-06-02 09:53:00
5:50 AM,68.0,66.2,94,29.96,10.0,North,4.6,-,N/A,,Overcast,360,2013-06-02 10:50:00
5:53 AM,68.0,66.0,93,29.95,10.0,North,4.6,-,N/A,,Overcast,350,2013-06-02 10:53:00
6:22 AM,68.0,66.2,94,29.97,9.0,North,4.6,-,N/A,,Overcast,350,2013-06-02 11:22:00
6:53 AM,68.0,66.0,93,29.96,10.0,NNW,3.5,-,N/A,,Overcast,340,2013-06-02 11:53:00
7:34 AM,68.0,66.2,94,29.97,10.0,North,3.5,-,N/A,,Overcast,350,2013-06-02 12:34:00
7:53 AM,68.0,66.0,93,29.96,10.0,North,5.8,-,N/A,,Overcast,350,2013-06-02 12:53:00
8:53 AM,69.1,64.0,84,29.98,10.0,NNW,8.1,-,N/A,,Overcast,340,2013-06-02 13:53:00
9:53 AM,70.0,63.0,78,29.99,10.0,NNW,8.1,-,N/A,,Overcast,340,2013-06-02 14:53:00
10:53 AM,73.0,64.0,73,29.99,10.0,North,8.1,-,N/A,,Clear,350,2013-06-02 15:53:00
11:53 AM,75.0,64.0,69,29.98,10.0,North,8.1,-,N/A,,Clear,10,2013-06-02 16:53:00
12:53 PM,75.9,62.1,62,29.97,10.0,NNE,5.8,-,N/A,,Mostly Cloudy,30,2013-06-02 17:53:00
1:53 PM,75.9,63.0,64,29.97,10.0,North,6.9,-,N/A,,Scattered Clouds,10,2013-06-02 18:53:00
2:53 PM,78.1,64.0,62,29.96,10.0,North,6.9,-,N/A,,Scattered Clouds,360,2013-06-02 19:53:00
3:53 PM,80.1,64.0,58,29.94,10.0,North,8.1,-,N/A,,Partly Cloudy,10,2013-06-02 20:53:00
4:53 PM,78.1,62.1,58,29.93,10.0,North,8.1,-,N/A,,Partly Cloudy,360,2013-06-02 21:53:00
5:53 PM,79.0,61.0,54,29.93,10.0,NNW,9.2,-,N/A,,Mostly Cloudy,330,2013-06-02 22:53:00
6:53 PM,77.0,60.1,56,29.93,10.0,North,4.6,-,N/A,,Scattered Clouds,360,2013-06-02 23:53:00
7:53 PM,73.9,63.0,68,29.94,10.0,North,3.5,-,N/A,,Mostly Cloudy,10,2013-06-03 00:53:00
8:53 PM,72.0,63.0,73,29.94,10.0,NNW,4.6,-,N/A,,Overcast,340,2013-06-03 01:53:00
9:53 PM,71.1,64.0,78,29.96,10.0,NNE,8.1,-,N/A,,Mostly Cloudy,30,2013-06-03 02:53:00
10:53 PM,70.0,63.0,78,29.97,10.0,NNE,6.9,-,N/A,,Partly Cloudy,30,2013-06-03 03:53:00
11:53 PM,70.0,62.1,76,29.97,10.0,NE,9.2,-,N/A,,Mostly Cloudy,40,2013-06-03 04:53:00